{"data":{"norad_id":52133,"intl_designator":"2022-029AX","name":"STARLINK-3707","alt_names":[],"object_type":"PAYLOAD","status":"ACTIVE","operator":null,"country":"US","launch_date":"2022-03-19","launch_site_code":"AFETR","launch_vehicle":null,"mission":null,"orbit_class":"UNKNOWN","rcs_meters":null,"size_class":null,"mass_kg":null,"dimensions":null,"purposes":["comms"],"wikipedia_slug":null,"has_3d_model":false,"image_url":null,"decayed_at":null,"tle_current":{"epoch":"2026-05-25T02:36:40.887648Z","epoch_age_seconds":59536,"freshness":"FRESH","line1":"1 52133U 22029AX  26145.10880657 -.00000284  00000+0  24935-6 0  9995","line2":"2 52133  53.2164  86.0599 0001454  87.1558 272.9600 15.08841036232472","mean_motion":15.08841036,"eccentricity":0.0001454,"inclination_deg":53.2164,"raan_deg":86.0599,"arg_perigee_deg":87.1558,"mean_anomaly_deg":272.96,"bstar":2.4935e-7,"rev_number":23247,"period_min":95.437489148459,"perigee_km":538.73436298025,"apogee_km":540.7460816765,"semimajor_km":6917.8772223284,"source":"CELESTRAK","updated_at":"2026-05-25T13:38:17.077824Z"}}}